IRIDIUM 33 DEB, 35628

Orbit data source: Space-Track

IRIDIUM 33 DEB, 35628 is space debris in LEO originally from a launch on Sun, 14 Sep 1997 UTC launched from the Tyuratam Missile And Space Complex (TTMTR). The debris from Iridium 33, an American commercial communications satellite, has been tracked extensively since its accidental collision with the defunct Russian satellite Cosmos 2251 in 2009. This event, occurring at high speed in low Earth orbit (LEO), generated thousands of pieces of space debris, significantly increasing the risk of further collisions. The Iridium 33 debris cloud has impacted space traffic management and orbital debris mitigation strategies, making it a subject of ongoing study in space situational awareness.

Loading next visibility...
Identifier
35628, 1997-051RA
Orbit
LEO
Country
Flag of USUS
Related business
Manufacturer
Unknown
Mission
Spacecraft
Bus & Motor
Unknown
Mass
Unknown
Launch date (UTC)
1997-09-14 (29 years ago)
Launch vehicle
Unknown
Launch site
Tyuratam Missile And Space Complex (TTMTR)
Object type
Payload
Rocket body
Debris
Shape & HBR
Unknown shape, 0.1 m
Radar Cross Section
Small (<0.1 m²)

Expand to show TLE details & history
Last TLE update: 18 hours ago

TLE from 18 hours ago
0 IRIDIUM 33 DEB
1 35628U 97051RA  26262.69023526  .00003824  00000-0  61466-3 0  9990
2 35628  86.3521 243.2944 0014268  82.2311 278.0525 14.71291612905734
Epoch: 2026-09-19T16:33Z
TLE epoch observation values (Epoch: 2026-09-19T16:33:56.326Z)
Latitude
0.00001°
Longitude
-3.78544°
Altitude
658.658 km
Speed
7.529 km/s
True Right ascension
16h 13m 10s
True Declination
0° 00' 00"
Sunlit
Object was in daylight at epoch
Visualization orbit readout
Latitude
Unknown
Longitude
Unknown
Altitude
Unknown
Speed
Unknown
Apparent Right ascension
Unknown
Apparent Declination
Unknown
Sunlit
N/A
Visualization observer readout
Local Sidereal Time
03:48:10
Azimuth
Unknown
Elevation
Unknown
Doppler factor
Unknown
Orbital elements
Apogee altitude
663.894 km
Perigee altitude
643.828 km
Semi-major axis
7,031.998 km
Eccentricity
0.00143
Inclination
86.3521°
RAAN
243.2944°
Arg. of periapsis
82.2311°
True anomaly
277.89057°
Mean anomaly
278.0525°
Eccentric anomaly
277.97154°
Mean motion
3.68065 °/min
Orbital period
97.81 mins
BSTAR
0.00061466
Loading maneuver chart data...
Computing Atmospheric mass density...

Documentation

Showing up to 5 results
|